Butte, MT

6:42 AM MDT on May 24, 2018 (GMT -0600)
Mooney

Weather History for KBTM - August, 2014

Change the Weather History Date:

Monday, August 11, 2014

  Actual Average Record
Temperature  
Mean Temperature 68 °F 63 °F  
Max Temperature 89 °F 81 °F 93 °F (1996)
Min Temperature 46 °F 45 °F 33 °F (1947)
Degree Days  
Heating Degree Days 0 3  
Month to date heating degree days 8 27  
Since 1 June heating degree days 396 414  
Since 1 July heating degree days 43 127  
Cooling Degree Days 3 1  
Month to date cooling degree days 10 13  
Year to date cooling degree days 71 64  
Since 1 June cooling degree days 71 64  
Growing Degree Days 17 (Base 50)    
Moisture  
Dew Point 35 °F    
Average Humidity 37    
Maximum Humidity 60    
Minimum Humidity 14    
Precipitation  
Precipitation 0.00 in 0.05 in 0.80 in (1958)
Month to date precipitation 0.25 0.47  
Year to date precipitation 8.65 8.99  
Sea Level Pressure  
Sea Level Pressure 30.11 in    
Wind  
Wind Speed 7 mph (SE)    
Max Wind Speed 22 mph    
Max Gust Speed 25 mph    
Visibility 10 miles    
Events      
T = Trace of Precipitation, MM = Missing Value Source: NWS Daily Summary

Daily Weather History Graph

Daily Weather History Graph

Search for Another Location

Airport or City:

Astronomy

Aug. 11, 2014 Rise Set
Actual Time 6:24 AM MDT 8:44 PM MDT
Civil Twilight 5:51 AM MDT 9:17 PM MDT
Nautical Twilight 5:10 AM MDT 9:58 PM MDT
Astronomical Twilight 4:23 AM MDT 10:44 PM MDT
Moon 9:06 PM MDT (8/11) 7:41 AM MDT (8/11)
Length of Visible Light 15h 26m
Length of Day
14h 19m
Full, 98% of the Moon is Illuminated
Aug 11
Full
Aug 17
Last Quarter
Aug 25
New
Sep 2
First Quarter
Sep 8
Full

Hourly Weather History & Observations

Time (MDT) Temp. Dew Point Humidity Pressure Visibility Wind Dir Wind Speed Gust Speed Precip Events Conditions
12:53 AM 55.9 °F 36.0 °F 47% 30.17 in 10.0 mi SE 4.6 mph - N/A   Clear
1:53 AM 51.1 °F 35.1 °F 54% 30.17 in 10.0 mi ESE 8.1 mph - N/A   Clear
2:53 AM 52.0 °F 34.0 °F 50% 30.17 in 10.0 mi Calm Calm - N/A   Clear
3:53 AM 50.0 °F 34.0 °F 54% 30.17 in 10.0 mi Calm Calm - N/A   Clear
4:53 AM 46.9 °F 33.1 °F 59% 30.18 in 10.0 mi SE 4.6 mph - N/A   Clear
5:53 AM 46.9 °F 32.0 °F 56% 30.18 in 10.0 mi SSE 5.8 mph - N/A   Clear
6:53 AM 46.9 °F 30.9 °F 54% 30.20 in 10.0 mi SE 4.6 mph - N/A   Clear
7:53 AM 50.0 °F 33.1 °F 52% 30.19 in 10.0 mi ESE 3.5 mph - N/A   Clear
8:53 AM 59.0 °F 34.0 °F 39% 30.19 in 10.0 mi Calm Calm - N/A   Clear
9:53 AM 66.9 °F 36.0 °F 32% 30.17 in 10.0 mi NNW 3.5 mph - N/A   Clear
10:53 AM 75.0 °F 36.0 °F 24% 30.17 in 10.0 mi Calm Calm - N/A   Clear
11:53 AM 81.0 °F 39.0 °F 22% 30.14 in 10.0 mi NE 5.8 mph - N/A   Clear
12:53 PM 82.9 °F 39.0 °F 21% 30.12 in 10.0 mi Variable 3.5 mph - N/A   Clear
1:53 PM 86.0 °F 37.9 °F 18% 30.11 in 10.0 mi SSE 6.9 mph - N/A   Clear
2:53 PM 87.1 °F 37.9 °F 18% 30.09 in 10.0 mi SSE 15.0 mph 21.9 mph N/A   Clear
3:53 PM 84.9 °F 36.0 °F 17% 30.08 in 10.0 mi SSE 9.2 mph - N/A   Clear
4:53 PM 88.0 °F 34.0 °F 15% 30.06 in 10.0 mi ESE 9.2 mph - N/A   Clear
5:53 PM 88.0 °F 33.1 °F 14% 30.05 in 10.0 mi SE 12.7 mph 16.1 mph N/A   Clear
6:53 PM 87.1 °F 32.0 °F 14% 30.04 in 10.0 mi SE 13.8 mph - N/A   Clear
7:53 PM 84.0 °F 37.0 °F 19% 30.04 in 10.0 mi East 11.5 mph - N/A   Clear
8:53 PM 82.0 °F 37.9 °F 21% 30.02 in 10.0 mi East 16.1 mph - N/A   Clear
9:53 PM 80.1 °F 37.0 °F 21% 30.02 in 10.0 mi East 13.8 mph 25.3 mph N/A   Clear
10:53 PM 77.0 °F 37.0 °F 24% 30.00 in 10.0 mi South 10.4 mph - N/A   Clear
11:53 PM 71.1 °F 37.0 °F 29% 30.00 in 10.0 mi Calm Calm - N/A   Clear